Terminal Aerodrome Forecast
Issued by NWS

Home | Current Version | Previous Version | Text Only | Print | Product List | Glossary On
Versions: 1 2 3 4 5 6 7 8 9 10 11 12 13 14 15 16 17 18 19 20 21 22 23 24 25 26 27 28 29 30 31 32 33 34 35 36 37 38 39 40 41 42 43 44 45 46 47
000
FTUS43 KDLH 260500
TAFHYR
TAF
KHYR 260524Z 2606/2706 VRB03KT 4SM -DZ BR OVC015
      TEMPO 2609/2612 2SM BR OVC004
     FM261600 VRB04KT P6SM VCSH BKN050
     FM270000 VRB05KT P6SM -DZ OVC025=

USA.gov is the U.S. government's official web portal to all federal, state and local government web resources and services.